This demonstration page uses our WeatherBlox Daily Observations layout. Learn more.

Left ArrowRight Arrow

39.51506, -84.39828

Hourly Observations for January 31, 2018

Temp ( °F °C ) Dew Point ( °F °C ) Humidity (%) Winds ( mph kmh ) Pressure ( in mb ) Visibility ( mi km ) Precip ( " mm )
12:15 am 00:15 Clear 28 -2.5 15 -9.6 59 59 S 10 17 30.30 1026 10 16 0.00 0.00
12:35 am 00:35 Clear 28 -2.5 15 -9.6 59 59 S 7 11 30.30 1026 10 16 0.00 0.00
12:55 am 00:55 Clear 28 -2.4 15 -9.6 58 58 S 6 9 30.30 1026 10 16 0.00 0.00
1:15 am 01:15 Clear 28 -2.4 15 -9.4 59 59 S 6 9 30.30 1026 10 16 0.00 0.00
1:35 am 01:35 Clear 28 -2.2 14 -9.8 56 56 SSW 15 24 30.27 1025 10 16 0.00 0.00
1:55 am 01:55 Clear 28 -2.3 14 -9.8 57 57 SSW 12 19 30.27 1025 10 16 0.00 0.00
3:35 am 03:35 Partly Cloudy 29 -1.9 15 -9.4 57 57 SSW 12 19 30.27 1025 10 16 0.00 0.00
3:55 am 03:55 Cloudy 29 -1.8 15 -9.4 57 57 S 13 20 30.24 1024 10 16 0.00 0.00
4:15 am 04:15 Cloudy 29 -1.7 15 -9.5 56 56 SSW 14 22 30.24 1024 10 16 0.00 0.00
4:35 am 04:35 Cloudy 29 -1.5 15 -9.3 56 56 SSW 15 24 30.24 1024 10 16 0.00 0.00
4:55 am 04:55 Partly Cloudy 29 -1.4 16 -9.1 56 56 SSW 15 24 30.21 1023 10 16 0.00 0.00
5:15 am 05:15 Mostly Cloudy 29 -1.4 16 -9.1 56 56 S 16 26 30.21 1023 10 16 0.00 0.00
5:35 am 05:35 Partly Cloudy 29 -1.6 16 -9 57 57 SSW 9 15 30.21 1023 10 16 0.00 0.00
5:55 am 05:55 Clear 29 -1.7 16 -8.8 59 59 SSW 9 15 30.21 1023 10 16 0.00 0.00
6:15 am 06:15 Clear 29 -1.5 17 -8.5 59 59 SSW 13 20 30.21 1023 10 16 0.00 0.00
6:35 am 06:35 Clear 29 -1.5 17 -8.6 59 59 SSW 14 22 30.18 1022 10 16 0.00 0.00
6:55 am 06:55 Clear 29 -1.5 17 -8.5 59 59 S 16 26 30.15 1021 10 16 0.00 0.00
7:15 am 07:15 Clear 29 -1.4 17 -8.6 58 58 S 12 19 30.15 1021 10 16 0.00 0.00
7:35 am 07:35 Clear 30 -1.2 17 -8.3 59 59 SSW 13 20 30.15 1021 10 16 0.00 0.00
7:55 am 07:55 Sunny 30 -1.1 17 -8.4 58 58 SSW 15 24 30.12 1020 10 16 0.00 0.00
8:15 am 08:15 Sunny 30 -1 17 -8.3 58 58 SSW 9 15 30.12 1020 10 16 0.00 0.00
8:35 am 08:35 Sunny 31 -0.7 17 -8.3 57 57 SSW 14 22 30.09 1019 10 16 0.00 0.00
8:55 am 08:55 Sunny 32 0 18 -8 55 55 SSW 17 28 30.09 1019 10 16 0.00 0.00
9:15 am 09:15 Mostly Cloudy 32 0.2 17 -8.3 53 53 SSW 18 30 30.09 1019 10 16 0.00 0.00
9:35 am 09:35 Sunny 33 0.7 17 -8.2 52 52 SSW 18 30 30.06 1018 10 16 0.00 0.00
9:55 am 09:55 Sunny 34 1.1 18 -7.9 51 51 SSW 16 26 30.06 1018 10 16 0.00 0.00
10:15 am 10:15 Sunny 35 1.7 18 -7.7 50 50 SSW 16 26 30.06 1018 10 16 0.00 0.00
10:35 am 10:35 Sunny 36 2.1 18 -7.8 48 48 SSW 18 30 30.03 1017 10 16 0.00 0.00
10:55 am 10:55 Sunny 37 3 19 -7.5 46 46 SSW 18 30 30.00 1016 10 16 0.00 0.00
11:15 am 11:15 Sunny 40 4.2 19 -7.1 44 44 SSW 17 28 29.97 1015 10 16 0.00 0.00
11:35 am 11:35 Sunny 42 5.6 19 -7.4 39 39 SSW 22 35 29.94 1014 10 16 0.00 0.00
11:55 am 11:55 Sunny 42 5.6 19 -7 40 40 SW 20 31 29.94 1014 10 16 0.00 0.00
12:15 pm 12:15 Sunny 42 5.8 19 -7 40 40 SW 21 33 29.91 1013 10 16 0.00 0.00
12:35 pm 12:35 Sunny 45 7.3 21 -6 39 39 SW 22 35 29.91 1013 10 16 0.00 0.00
12:55 pm 12:55 Sunny 46 7.9 22 -5.6 38 38 SW 17 28 29.88 1012 10 16 0.00 0.00
1:15 pm 13:15 Sunny 47 8.2 22 -5.6 37 37 SW 18 30 29.88 1012 10 16 0.00 0.00
1:35 pm 13:35 Sunny 48 8.7 22 -5.4 37 37 SW 20 31 29.85 1011 10 16 0.00 0.00
1:55 pm 13:55 Sunny 49 9.3 23 -5 36 36 SW 18 30 29.85 1011 10 16 0.00 0.00
2:15 pm 14:15 Sunny 49 9.7 24 -4.6 36 36 SW 20 31 29.85 1011 10 16 0.00 0.00
2:35 pm 14:35 Sunny 51 10.6 24 -4.3 35 35 WSW 20 31 29.85 1011 10 16 0.00 0.00
2:55 pm 14:55 Sunny 50 10 24 -4.7 35 35 WSW 25 41 29.85 1011 10 16 0.00 0.00
3:15 pm 15:15 Sunny 50 10.1 24 -4.3 36 36 WSW 18 30 29.85 1011 10 16 0.00 0.00
3:35 pm 15:35 Sunny 51 10.4 25 -4 36 36 WSW 17 28 29.83 1010 10 16 0.00 0.00
3:55 pm 15:55 Sunny 52 11.2 26 -3.5 36 36 WSW 20 31 29.85 1011 10 16 0.00 0.00
4:15 pm 16:15 Sunny 51 10.7 26 -3.5 37 37 WSW 13 20 29.83 1010 10 16 0.00 0.00
4:35 pm 16:35 Sunny 51 10.4 26 -3.4 38 38 WSW 17 28 29.85 1011 10 16 0.00 0.00
4:55 pm 16:55 Sunny 50 10.2 26 -3.1 39 39 WSW 14 22 29.85 1011 10 16 0.00 0.00
5:15 pm 17:15 Sunny 50 9.8 27 -3 41 41 SW 14 22 29.83 1010 10 16 0.00 0.00
5:35 pm 17:35 Sunny 49 9.2 27 -3 43 43 W 8 13 29.85 1011 10 16 0.00 0.00
5:55 pm 17:55 Sunny 47 8.4 27 -2.8 46 46 W 6 9 29.85 1011 10 16 0.00 0.00
6:15 pm 18:15 Clear 46 7.5 27 -2.9 48 48 WSW 6 9 29.85 1011 10 16 0.00 0.00
6:35 pm 18:35 Clear 44 6.8 28 -2.5 52 52 WSW 7 11 29.85 1011 10 16 0.00 0.00
7:15 pm 19:15 Clear 45 7.4 28 -2.4 50 50 SSW 8 13 29.85 1011 10 16 0.00 0.00
7:35 pm 19:35 Clear 44 6.5 28 -2.4 53 53 SW 5 7 29.85 1011 10 16 0.00 0.00
7:55 pm 19:55 Clear 42 5.6 28 -2.4 57 57 SW 6 9 29.85 1011 10 16 0.00 0.00
8:15 pm 20:15 Clear 36 2.4 28 -2.4 71 71 WSW 3 6 29.85 1011 10 16 0.00 0.00
8:35 pm 20:35 Clear 37 2.6 28 -2 72 72 Calm 29.85 1011 10 16 0.00 0.00
8:55 pm 20:55 Clear 35 1.6 28 -2.3 76 76 Calm 29.88 1012 10 16 0.00 0.00
9:15 pm 21:15 Clear 34 0.9 26 -3.1 75 75 Calm 29.91 1013 10 16 0.00 0.00
9:35 pm 21:35 Clear 34 1 29 -1.7 82 82 Calm 29.91 1013 10 16 0.00 0.00
9:55 pm 21:55 Clear 33 0.6 27 -2.6 79 79 Calm 29.91 1013 10 16 0.00 0.00
10:15 pm 22:15 Clear 34 1 27 -3 75 75 Calm 29.91 1013 10 16 0.00 0.00
10:35 pm 22:35 Clear 33 0.4 28 -2.5 81 81 Calm 29.91 1013 10 16 0.00 0.00
10:55 pm 22:55 Clear 32 0 28 -2.1 86 86 Calm 29.91 1013 10 16 0.00 0.00
11:15 pm 23:15 Clear 33 0.6 29 -1.9 84 84 Calm 29.91 1013 10 16 0.00 0.00
11:35 pm 23:35 Clear 33 0.3 29 -1.7 87 87 Calm 29.91 1013 10 16 0.00 0.00
11:55 pm 23:55 Clear 33 0.5 29 -1.5 87 87 Calm 29.91 1013 10 16 0.00 0.00

Powered by AerisWeather